Rochester, NH

2:54 PM EDT on June 23, 2017 (GMT -0400)
Skyhaven

Weather History for KDAW - July, 2012

Change the Weather History Date:

Wednesday, July 18, 2012

  Actual Average (KPSM) Record (KPSM)
Temperature  
Mean Temperature 78 °F -  
Max Temperature 87 °F 78 °F 95 °F (1982)
Min Temperature 68 °F 59 °F 50 °F (1987)
Cooling Degree Days 12    
Growing Degree Days 28 (Base 50)    
Moisture  
Dew Point 65 °F    
Average Humidity 67    
Maximum Humidity 87    
Minimum Humidity 41    
Precipitation  
Precipitation 0.00 in - - ()
Sea Level Pressure  
Sea Level Pressure 29.78 in    
Wind  
Wind Speed 4 mph (NW)    
Max Wind Speed 10 mph    
Max Gust Speed -    
Visibility 10 miles    
Events      
Averages and records for this station are not official NWS values.
T = Trace of Precipitation, MM = Missing Value Source: NWS Daily Summary

Daily Weather History Graph

Daily Weather History Graph

Search for Another Location

Airport or City:

Trip Planner

Search our weather history database for the weather conditions in past years. The results will help you decide how hot, cold, wet, or windy it might be!

Date:

Astronomy

Jul. 18, 2012 Rise Set
Actual Time 5:20 AM EDT 8:19 PM EDT
Civil Twilight 4:46 AM EDT 8:53 PM EDT
Nautical Twilight 4:02 AM EDT 9:36 PM EDT
Astronomical Twilight 3:11 AM EDT 10:26 PM EDT
Moon 4:52 AM EDT (7/18) 7:45 PM EDT (7/18)
Length of Visible Light 16h 06m
Length of Day
14h 58m
Waning Crescent, 0% of the Moon is Illuminated
Jul 18
Waning Crescent
Jul 19
New
Jul 26
First Quarter
Aug 1
Full
Aug 9
Last Quarter

Hourly Weather History & Observations

Time (EDT) Temp. Heat Index Dew Point Humidity Pressure Visibility Wind Dir Wind Speed Gust Speed Precip Events Conditions
12:51 AM 73.9 °F - 70.0 °F 87% 29.68 in 10.0 mi WNW 4.6 mph - N/A   Partly Cloudy
1:51 AM 75.0 °F - 70.0 °F 84% 29.68 in 10.0 mi Variable 3.5 mph - N/A   Clear
2:51 AM 75.9 °F - 69.1 °F 79% 29.67 in 10.0 mi WNW 5.8 mph - N/A   Clear
3:51 AM 73.9 °F - 69.1 °F 85% 29.67 in 10.0 mi Variable 3.5 mph - N/A   Clear
4:51 AM 73.0 °F - 69.1 °F 87% 29.70 in 10.0 mi Calm Calm - N/A   Clear
5:51 AM 73.0 °F - 69.1 °F 87% 29.72 in 10.0 mi Calm Calm - N/A   Clear
6:51 AM 75.0 °F - 70.0 °F 84% 29.75 in 10.0 mi Calm Calm - N/A   Clear
7:51 AM 78.1 °F - 69.1 °F 74% 29.77 in 10.0 mi NW 8.1 mph - N/A   Clear
8:51 AM 80.1 °F 82.7 °F 68.0 °F 67% 29.78 in 10.0 mi NW 9.2 mph - N/A   Clear
9:51 AM 80.1 °F 82.1 °F 66.0 °F 62% 29.79 in 10.0 mi NNW 6.9 mph - N/A   Clear
10:51 AM 82.9 °F 84.0 °F 63.0 °F 51% 29.81 in 10.0 mi NW 8.1 mph - N/A   Scattered Clouds
11:51 AM 82.0 °F 83.1 °F 63.0 °F 52% 29.81 in 10.0 mi Calm Calm - N/A   Overcast
12:51 PM 82.0 °F 83.4 °F 64.0 °F 54% 29.81 in 10.0 mi WNW 5.8 mph - N/A   Overcast
1:51 PM 82.9 °F 84.4 °F 64.0 °F 53% 29.79 in 10.0 mi Variable 3.5 mph - N/A   Overcast
2:51 PM 84.9 °F 85.9 °F 63.0 °F 48% 29.78 in 10.0 mi Variable 5.8 mph - N/A   Scattered Clouds
3:51 PM 82.9 °F 84.6 °F 64.9 °F 54% 29.79 in 10.0 mi NNW 5.8 mph - N/A   Overcast
4:51 PM 84.9 °F 84.8 °F 60.1 °F 43% 29.79 in 10.0 mi NNW 10.4 mph - N/A   Partly Cloudy
5:51 PM 84.9 °F 84.4 °F 59.0 °F 41% 29.81 in 10.0 mi NNW 9.2 mph - N/A   Clear
6:51 PM 82.0 °F 82.7 °F 61.0 °F 49% 29.83 in 10.0 mi Calm Calm - N/A   Scattered Clouds
7:51 PM 75.9 °F - 69.1 °F 79% 29.82 in 10.0 mi Calm Calm - N/A   Partly Cloudy
8:51 PM 75.0 °F - 66.9 °F 76% 29.83 in 10.0 mi NW 3.5 mph - N/A   Clear
9:51 PM 72.0 °F - 64.0 °F 76% 29.87 in 10.0 mi NW 5.8 mph - N/A   Scattered Clouds
10:51 PM 71.1 °F - 61.0 °F 70% 29.89 in 10.0 mi NNW 6.9 mph - N/A   Overcast
11:51 PM 68.0 °F - 57.9 °F 70% 29.90 in 10.0 mi North 3.5 mph - N/A   Partly Cloudy